This demonstration page uses our WeatherBlox Daily Observations layout. Learn more.

Left ArrowRight Arrow

Hourly Observations for February 28, 2019

Temp ( °F °C ) Dew Point ( °F °C ) Humidity (%) Winds ( mph kmh ) Pressure ( in mb ) Visibility ( mi km ) Precip ( " mm )
12:15 am 00:15 Cloudy 28 -2 25 -4 86 86 NW 7 11 30.22 1023 10 16 N/A
12:16 am 00:16 Cloudy 28 -2 25 -4 86 86 NW 8 13 30.22 1023 10 16 N/A
12:35 am 00:35 Cloudy 28 -2 27 -3 93 93 NNW 12 19 30.22 1023 10 16 N/A
12:36 am 00:36 Cloudy 28 -2 27 -3 93 93 NNW 14 22 30.22 1023 10 16 N/A
12:55 am 00:55 Cloudy 28 -2 25 -4 86 86 NW 12 19 30.22 1023 10 16 N/A
1:15 am 01:15 Cloudy 28 -2 25 -4 86 86 NNW 9 15 30.22 1023 10 16 N/A
1:16 am 01:16 Cloudy 28 -2 25 -4 86 86 NNW 9 15 30.22 1023 10 16 N/A
1:35 am 01:35 Cloudy 28 -2 25 -4 86 86 NNW 9 15 30.23 1024 10 16 N/A
1:36 am 01:36 Cloudy 28 -2 25 -4 86 86 NNW 12 19 30.23 1024 10 16 N/A
1:55 am 01:55 Cloudy 27 -3 25 -4 93 93 NNW 7 11 30.24 1024 10 16 N/A
2:16 am 02:16 Cloudy 27 -3 25 -4 93 93 NNW 9 15 30.24 1024 10 16 N/A
2:35 am 02:35 Cloudy 27 -3 25 -4 93 93 N 8 13 30.23 1024 10 16 N/A
2:36 am 02:36 Cloudy 27 -3 25 -4 93 93 N 7 11 30.23 1024 10 16 N/A
2:55 am 02:55 Cloudy 27 -3 25 -4 93 93 NNW 8 13 30.23 1024 10 16 N/A
3:15 am 03:15 Cloudy 27 -3 25 -4 93 93 NNW 7 11 30.23 1024 10 16 N/A
3:16 am 03:16 Cloudy 27 -3 25 -4 93 93 NNW 8 13 30.23 1024 10 16 N/A
3:35 am 03:35 Cloudy 27 -3 25 -4 93 93 NNW 8 13 30.23 1024 10 16 N/A
3:55 am 03:55 Cloudy 27 -3 25 -4 93 93 NNW 6 9 30.22 1023 10 16 N/A
4:15 am 04:15 Cloudy 27 -3 27 -3 100 100 N 8 13 30.22 1023 10 16 N/A
4:16 am 04:16 Cloudy 27 -3 27 -3 100 100 N 9 15 30.22 1023 10 16 N/A
4:35 am 04:35 Cloudy 27 -3 27 -3 100 100 N 7 11 30.22 1023 10 16 N/A
4:55 am 04:55 Cloudy 27 -3 23 -5 86 86 NNE 7 11 30.23 1024 10 16 N/A
5:15 am 05:15 Cloudy 27 -3 25 -4 93 93 NNE 8 13 30.24 1024 10 16 N/A
5:16 am 05:16 Cloudy 27 -3 25 -4 93 93 NNE 9 15 30.24 1024 10 16 N/A
5:35 am 05:35 Cloudy 27 -3 25 -4 93 93 NNE 9 15 30.25 1024 10 16 N/A
5:55 am 05:55 Cloudy 27 -3 25 -4 93 93 NNE 7 11 30.26 1025 10 16 N/A
6:15 am 06:15 Cloudy 27 -3 23 -5 86 86 NNE 9 15 30.26 1025 10 16 N/A
6:16 am 06:16 Cloudy 27 -3 23 -5 86 86 NNE 8 13 30.26 1025 10 16 N/A
6:35 am 06:35 Cloudy 27 -3 23 -5 86 86 NNE 8 13 30.26 1025 10 16 N/A
6:55 am 06:55 Cloudy 27 -3 23 -5 86 86 NE 9 15 30.26 1025 10 16 N/A
6:56 am 06:56 Cloudy 27 -3 23 -5 86 86 NE 9 15 30.26 1025 10 16 N/A
7:15 am 07:15 Cloudy 27 -3 23 -5 86 86 NE 9 15 30.26 1025 10 16 N/A
7:16 am 07:16 Cloudy 27 -3 23 -5 86 86 NE 9 15 30.26 1025 10 16 N/A
7:35 am 07:35 Cloudy 27 -3 23 -5 86 86 NE 10 17 30.25 1024 10 16 N/A
7:55 am 07:55 Cloudy 27 -3 23 -5 86 86 NE 12 19 30.26 1025 10 16 N/A
7:56 am 07:56 Cloudy 27 -3 23 -5 86 86 NE 10 17 30.26 1025 10 16 N/A
8:15 am 08:15 Cloudy 27 -3 23 -5 86 86 NE 9 15 30.26 1025 10 16 N/A
8:35 am 08:35 Cloudy 27 -3 23 -5 86 86 NE 10 17 30.27 1025 10 16 N/A
8:55 am 08:55 Cloudy 27 -3 21 -6 80 80 ENE 8 13 30.27 1025 10 16 N/A
8:56 am 08:56 Cloudy 27 -3 21 -6 80 80 ENE 8 13 30.27 1025 10 16 N/A
9:15 am 09:15 Cloudy 27 -3 23 -5 86 86 NE 8 13 30.27 1025 10 16 N/A
9:35 am 09:35 Cloudy 28 -2 23 -5 80 80 ENE 8 13 30.26 1025 10 16 N/A
9:36 am 09:36 Cloudy 28 -2 23 -5 80 80 ENE 7 11 30.26 1025 10 16 N/A
9:55 am 09:55 Cloudy 28 -2 23 -5 80 80 NE 8 13 30.25 1024 10 16 N/A
9:56 am 09:56 Cloudy 28 -2 23 -5 80 80 NE 8 13 30.25 1024 10 16 N/A
10:35 am 10:35 Cloudy 30 -1 23 -5 75 75 ENE 12 19 30.24 1024 10 16 N/A
10:36 am 10:36 Cloudy 30 -1 23 -5 75 75 E 10 17 30.24 1024 10 16 N/A
10:55 am 10:55 Cloudy 30 -1 25 -4 80 80 E 13 20 30.24 1024 10 16 N/A
10:56 am 10:56 Cloudy 30 -1 25 -4 80 80 E 13 20 30.24 1024 10 16 N/A
11:15 am 11:15 Cloudy 30 -1 25 -4 80 80 E 10 17 30.23 1024 10 16 N/A
11:35 am 11:35 Cloudy 30 -1 25 -4 80 80 E 12 19 30.22 1023 10 16 N/A
11:36 am 11:36 Cloudy 30 -1 25 -4 80 80 E 10 17 30.23 1024 10 16 N/A
11:55 am 11:55 Cloudy 30 -1 25 -4 80 80 ENE 9 15 30.22 1023 10 16 N/A
11:56 am 11:56 Cloudy 30 -1 25 -4 80 80 ENE 9 15 30.22 1023 10 16 N/A
12:15 pm 12:15 Cloudy 32 undefined 25 -4 75 75 ENE 9 15 30.21 1023 10 16 N/A
12:35 pm 12:35 Cloudy 32 undefined 25 -4 75 75 ENE 13 20 30.21 1023 10 16 N/A
12:36 pm 12:36 Cloudy 32 undefined 25 -4 75 75 ENE 13 20 30.21 1023 10 16 N/A
12:55 pm 12:55 Cloudy 34 1 27 -3 75 75 NE 8 13 30.20 1023 10 16 N/A
1:15 pm 13:15 Cloudy 32 undefined 25 -4 75 75 E 6 9 30.21 1023 10 16 N/A
1:16 pm 13:16 Cloudy 32 undefined 25 -4 75 75 E 5 7 30.21 1023 10 16 N/A
1:35 pm 13:35 Cloudy 32 undefined 27 -3 80 80 ENE 8 13 30.21 1023 10 16 N/A
1:55 pm 13:55 Cloudy 32 undefined 27 -3 80 80 ENE 8 13 30.19 1022 10 16 N/A
2:15 pm 14:15 Cloudy 32 undefined 27 -3 80 80 ENE 6 9 30.19 1022 10 16 N/A
2:16 pm 14:16 Cloudy 32 undefined 27 -3 80 80 ENE 6 9 30.19 1022 10 16 N/A
2:35 pm 14:35 Cloudy 32 undefined 27 -3 80 80 ENE 7 11 30.18 1022 10 16 N/A
2:55 pm 14:55 Cloudy 32 undefined 27 -3 80 80 ENE 6 9 30.18 1022 10 16 N/A
3:15 pm 15:15 Cloudy 32 undefined 27 -3 80 80 ENE 9 15 30.18 1022 10 16 N/A
3:16 pm 15:16 Cloudy 32 undefined 27 -3 80 80 ENE 7 11 30.18 1022 10 16 N/A
3:35 pm 15:35 Cloudy 32 undefined 27 -3 80 80 ENE 6 9 30.18 1022 10 16 N/A
4:02 pm 16:02 Cloudy 32 undefined 27 -3 80 80 ENE 8 13 30.17 1022 10 16 N/A
4:12 pm 16:12 Cloudy 32 undefined 27 -3 80 80 ENE 9 15 30.16 1021 10 16 N/A
4:15 pm 16:15 Cloudy 32 undefined 27 -3 80 80 E 9 15 30.16 1021 10 16 N/A
4:16 pm 16:16 Cloudy 32 undefined 27 -3 80 80 E 9 15 30.16 1021 10 16 N/A
4:35 pm 16:35 Cloudy 32 undefined 27 -3 80 80 E 9 15 30.17 1022 10 16 N/A
4:55 pm 16:55 Cloudy 32 undefined 27 -3 80 80 E 7 11 30.17 1022 10 16 N/A
4:56 pm 16:56 Cloudy 32 undefined 27 -3 80 80 E 8 13 30.17 1022 10 16 N/A
5:15 pm 17:15 Cloudy 32 undefined 27 -3 80 80 ENE 9 15 30.17 1022 10 16 N/A
5:16 pm 17:16 Cloudy 32 undefined 27 -3 80 80 ENE 8 13 30.17 1022 10 16 N/A
5:35 pm 17:35 Cloudy 32 undefined 27 -3 80 80 NNE 7 11 30.17 1022 10 16 N/A
5:55 pm 17:55 Cloudy 30 -1 28 -2 93 93 E 9 15 30.16 1021 7 11 N/A
5:56 pm 17:56 Cloudy 30 -1 28 -2 93 93 E 9 15 30.16 1021 7 11 N/A
6:15 pm 18:15 Cloudy 30 -1 28 -2 93 93 E 10 17 30.17 1022 3 4 N/A
6:35 pm 18:35 Cloudy 28 -2 28 -2 100 100 E 8 13 30.16 1021 3 4 N/A
6:55 pm 18:55 Cloudy 28 -2 28 -2 100 100 E 9 15 30.16 1021 3 4 N/A
6:56 pm 18:56 Cloudy 28 -2 28 -2 100 100 E 8 13 30.16 1021 3 4 N/A
7:15 pm 19:15 Cloudy 28 -2 28 -2 100 100 ENE 9 15 30.16 1021 3 4 N/A
7:35 pm 19:35 Cloudy 28 -2 28 -2 100 100 ENE 8 13 30.17 1022 2 3 N/A
7:55 pm 19:55 Cloudy 28 -2 28 -2 100 100 NE 7 11 30.17 1022 2 3 N/A
7:56 pm 19:56 Cloudy 28 -2 28 -2 100 100 NE 7 11 30.17 1022 3 4 N/A
8:15 pm 20:15 Cloudy 28 -2 28 -2 100 100 ENE 7 11 30.16 1021 3 5 N/A
8:35 pm 20:35 Cloudy 28 -2 28 -2 100 100 NE 8 13 30.17 1022 3 4 N/A
8:55 pm 20:55 Cloudy 28 -2 28 -2 100 100 NE 9 15 30.17 1022 3 5 N/A
8:56 pm 20:56 Cloudy 28 -2 28 -2 100 100 NE 9 15 30.17 1022 3 5 N/A
9:15 pm 21:15 Cloudy 28 -2 28 -2 100 100 NE 10 17 30.18 1022 3 4 N/A
9:35 pm 21:35 Cloudy 28 -2 28 -2 100 100 NE 9 15 30.17 1022 4 6 N/A
9:36 pm 21:36 Cloudy 28 -2 28 -2 100 100 NE 8 13 30.17 1022 4 6 N/A
9:55 pm 21:55 Cloudy 28 -2 28 -2 100 100 NE 7 11 30.19 1022 7 11 N/A
10:15 pm 22:15 Cloudy 28 -2 28 -2 100 100 NE 8 13 30.18 1022 5 8 N/A
10:35 pm 22:35 Cloudy 28 -2 28 -2 100 100 NNE 7 11 30.19 1022 5 8 N/A
10:36 pm 22:36 Cloudy 28 -2 28 -2 100 100 NNE 7 11 30.19 1022 5 8 N/A

Powered by AerisWeather